Starlink 30073

operational
NORAD ID: 56840 Int'l Des: 2023-079 Owner: SPXS Country: US Constellation: starlink
LEOCIRCULAR

About Starlink 30073

Description loading...

Live Position

Loading 3D Globe...

Upcoming Passes

Altitude History

Altitude vs Time

uPlot chart will show altitude changes over time

Two-Line Element Set

1 56840U 23079T 26095.25002315 -.00002691 00000-0 -88396-4 0 9992
2 56840 43.0007 142.3745 0001530 265.3160 168.2702 15.27549960 5804
Epoch: Apr 5, 2026 • Age: 6 hours

Current Status

Altitude 485.0 km
Velocity 7.62 km/s
Sub-Earth Point -11.99°S, 115.89°E
Launch Date Jun 4, 2023
Age 2.8 years
Type internet

Technical Details

Classification Payload
Mass 730.00 kg
Dry Mass 700.00 kg
Total Mass 730.00 kg
Length 0.30 m
Diameter 4.10 m
Span 29.00 m
Shape Box + pan
Manufacturer SPXS
Bus Type Starlink V2M
Phase Status In Orbit
Owner/State SPXS/US

Large Constellations

Loading constellations...